When you browse on this site, cookies collect data to enhance your experience and personalize the content and advertising you see.
Visit our Privacy Policy to learn more. By continuing to use the site, you agree to this use of cookies and data.
  • In Romania
  • List of Countries
  • For 7 days
  • Water Temperature
  • Weather Map
  • Weather Widgets
  • user-avatar
    Login

    Hourly Weather Goiania

    Today, 13 November, Wednesday

    Time Temperature Precipitation Wind Pressure Humidity
    00:00 +24°C° 0 mm 0 mps 696 mmHg 49%
    01:00 +26°C° 0 mm 1 mps 696 mmHg 49%
    02:00 +26°C° 0 mm 1 mps 695 mmHg 50%
    03:00 +26°C° 0 mm 1 mps 695 mmHg 50%
    04:00 +25°C° 0 mm 1 mps 696 mmHg 52%
    05:00 +25°C° 0 mm 1 mps 696 mmHg 54%
    06:00 +25°C° 0 mm 2 mps 696 mmHg 57%
    07:00 +27°C° 0 mm 3 mps 697 mmHg 52%
    08:00 +29°C° 0 mm 4 mps 698 mmHg 46%
    09:00 +32°C° 0 mm 5 mps 699 mmHg 41%
    10:00 +33°C° 0 mm 5 mps 699 mmHg 38%
    11:00 +34°C° 0 mm 5 mps 698 mmHg 34%
    12:00 +36°C° 0 mm 4 mps 698 mmHg 30%
    13:00 +36°C° 0 mm 4 mps 698 mmHg 30%
    14:00 +36°C° 0 mm 4 mps 697 mmHg 30%
    15:00 +36°C° 0 mm 4 mps 696 mmHg 30%
    16:00 +35°C° 0 mm 3 mps 696 mmHg 35%
    17:00 +32°C° 0 mm 2 mps 695 mmHg 40%
    18:00 +30°C° 0 mm 2 mps 695 mmHg 45%
    19:00 +29°C° 0 mm 2 mps 695 mmHg 46%
    20:00 +28°C° 0 mm 1 mps 696 mmHg 46%
    21:00 +27°C° 0 mm 1 mps 696 mmHg 47%
    22:00 +27°C° 0 mm 1 mps 696 mmHg 48%
    23:00 +27°C° 0 mm 1 mps 696 mmHg 48%

    Tomorrow, 14 November, Thursday

    Time Temperature Precipitation Wind Pressure Humidity
    00:00 +27°C° 0 mm 1 mps 697 mmHg 48%
    01:00 +26°C° 0 mm 1 mps 696 mmHg 51%
    02:00 +26°C° 0 mm 1 mps 696 mmHg 53%
    03:00 +25°C° 0 mm 1 mps 696 mmHg 56%
    04:00 +25°C° 0 mm 1 mps 696 mmHg 57%
    05:00 +25°C° 0 mm 1 mps 696 mmHg 59%
    06:00 +24°C° 0 mm 1 mps 696 mmHg 61%
    07:00 +26°C° 0 mm 1 mps 697 mmHg 55%
    08:00 +29°C° 0 mm 2 mps 698 mmHg 50%
    09:00 +31°C° 0 mm 2 mps 698 mmHg 45%
    10:00 +33°C° 0 mm 3 mps 698 mmHg 40%
    11:00 +35°C° 0 mm 3 mps 698 mmHg 36%
    12:00 +36°C° 0 mm 4 mps 698 mmHg 31%
    13:00 +36°C° 0 mm 3 mps 697 mmHg 31%
    14:00 +36°C° 0 mm 3 mps 696 mmHg 30%
    15:00 +36°C° 0 mm 3 mps 696 mmHg 30%
    16:00 +35°C° 0 mm 3 mps 695 mmHg 35%
    17:00 +32°C° 0 mm 2 mps 695 mmHg 40%
    18:00 +31°C° 0 mm 2 mps 694 mmHg 45%
    19:00 +29°C° 0 mm 1 mps 695 mmHg 47%
    20:00 +28°C° 0 mm 1 mps 695 mmHg 50%
    21:00 +27°C° 0 mm 1 mps 695 mmHg 52%
    22:00 +27°C° 0 mm 1 mps 695 mmHg 54%
    23:00 +26°C° 0 mm 1 mps 695 mmHg 56%

    Day after tomorrow, 15 November, Friday

    Time Temperature Precipitation Wind Pressure Humidity
    00:00 +26°C° 0 mm 1 mps 696 mmHg 57%
    01:00 +26°C° 0 mm 1 mps 695 mmHg 60%
    02:00 +25°C° 0 mm 1 mps 695 mmHg 63%
    03:00 +25°C° 0 mm 1 mps 695 mmHg 65%
    04:00 +22°C° 0 mm 0 mps 695 mmHg 69%
    05:00 +22°C° 0 mm 0 mps 695 mmHg 73%
    06:00 +21°C° 0 mm 0 mps 695 mmHg 78%
    07:00 +26°C° 0 mm 1 mps 696 mmHg 64%
    08:00 +28°C° 0 mm 1 mps 696 mmHg 59%
    09:00 +30°C° 0 mm 1 mps 697 mmHg 54%
    10:00 +32°C° 0.1 mm 2 mps 697 mmHg 49%
    11:00 +34°C° 0.1 mm 3 mps 697 mmHg 44%
    12:00 +36°C° 0.1 mm 4 mps 697 mmHg 38%
    13:00 +34°C° 0.4 mm 4 mps 696 mmHg 48%
    14:00 +32°C° 0.4 mm 5 mps 695 mmHg 58%
    15:00 +29°C° 0.4 mm 5 mps 694 mmHg 67%
    16:00 +27°C° 1.1 mm 4 mps 694 mmHg 73%
    17:00 +26°C° 1.1 mm 3 mps 694 mmHg 78%
    18:00 +24°C° 1.1 mm 1 mps 694 mmHg 84%
    19:00 +24°C° 0.3 mm 1 mps 694 mmHg 84%
    20:00 +24°C° 0.3 mm 1 mps 695 mmHg 84%
    21:00 +22°C° 0.3 mm 0 mps 695 mmHg 84%
    22:00 +24°C° 0.4 mm 1 mps 695 mmHg 85%
    23:00 +23°C° 0.4 mm 1 mps 695 mmHg 87%

    16 November, Saturday

    Time Temperature Precipitation Wind Pressure Humidity
    00:00 +23°C° 0.4 mm 2 mps 695 mmHg 88%
    01:00 +23°C° 0.1 mm 2 mps 694 mmHg 87%
    02:00 +23°C° 0.1 mm 1 mps 694 mmHg 87%
    03:00 +23°C° 0.1 mm 1 mps 693 mmHg 86%
    04:00 +23°C° 0.3 mm 1 mps 693 mmHg 88%
    05:00 +22°C° 0.3 mm 1 mps 694 mmHg 90%
    06:00 +21°C° 0.3 mm 2 mps 694 mmHg 93%
    07:00 +23°C° 0.3 mm 1 mps 694 mmHg 89%
    08:00 +24°C° 0.3 mm 1 mps 695 mmHg 85%
    09:00 +25°C° 0.3 mm 1 mps 695 mmHg 81%
    10:00 +26°C° 0.8 mm 2 mps 695 mmHg 78%
    11:00 +27°C° 0.8 mm 3 mps 695 mmHg 75%
    12:00 +28°C° 0.8 mm 3 mps 695 mmHg 72%
    13:00 +27°C° 1.1 mm 3 mps 694 mmHg 74%
    14:00 +27°C° 1.1 mm 3 mps 694 mmHg 77%
    15:00 +26°C° 1.1 mm 3 mps 693 mmHg 79%
    16:00 +26°C° 1 mm 2 mps 693 mmHg 81%
    17:00 +26°C° 1 mm 2 mps 693 mmHg 82%
    18:00 +25°C° 1 mm 1 mps 693 mmHg 84%
    19:00 +25°C° 0.1 mm 1 mps 693 mmHg 85%
    20:00 +24°C° 0.1 mm 1 mps 694 mmHg 86%
    21:00 +22°C° 0.1 mm 0 mps 694 mmHg 86%
    22:00 +23°C° 0.4 mm 1 mps 694 mmHg 87%
    23:00 +23°C° 0.4 mm 1 mps 694 mmHg 88%

    17 November, Sunday

    Time Temperature Precipitation Wind Pressure Humidity
    00:00 +23°C° 0.4 mm 1 mps 694 mmHg 89%
    01:00 +23°C° 0.4 mm 1 mps 694 mmHg 89%
    02:00 +23°C° 0.4 mm 1 mps 694 mmHg 89%
    03:00 +23°C° 0.4 mm 1 mps 693 mmHg 89%
    04:00 +23°C° 0.1 mm 1 mps 694 mmHg 89%
    05:00 +22°C° 0.1 mm 1 mps 694 mmHg 90%
    06:00 +20°C° 0.1 mm 0 mps 694 mmHg 90%
    07:00 +24°C° 0.1 mm 1 mps 695 mmHg 84%
    08:00 +26°C° 0.1 mm 1 mps 695 mmHg 77%
    09:00 +28°C° 0.1 mm 1 mps 696 mmHg 70%
    10:00 +28°C° 1 mm 1 mps 696 mmHg 68%
    11:00 +29°C° 1 mm 1 mps 696 mmHg 66%
    12:00 +30°C° 1 mm 1 mps 695 mmHg 65%
    13:00 +30°C° 3.2 mm 1 mps 695 mmHg 66%
    14:00 +29°C° 3.2 mm 2 mps 694 mmHg 68%
    15:00 +29°C° 3.2 mm 2 mps 694 mmHg 70%
    16:00 +28°C° 3.2 mm 2 mps 694 mmHg 75%
    17:00 +26°C° 3.2 mm 2 mps 694 mmHg 80%
    18:00 +25°C° 3.2 mm 2 mps 694 mmHg 85%
    19:00 +24°C° 1.6 mm 2 mps 694 mmHg 87%
    20:00 +24°C° 1.6 mm 1 mps 695 mmHg 89%
    21:00 +23°C° 1.6 mm 1 mps 695 mmHg 91%
    22:00 +23°C° 0.5 mm 1 mps 695 mmHg 91%
    23:00 +23°C° 0.5 mm 1 mps 696 mmHg 91%

    18 November, Monday

    Time Temperature Precipitation Wind Pressure Humidity
    00:00 +21°C° 0.5 mm 0 mps 696 mmHg 91%
    01:00 +21°C° 0.2 mm 0 mps 696 mmHg 92%
    02:00 +21°C° 0.2 mm 0 mps 695 mmHg 92%
    03:00 +21°C° 0.2 mm 0 mps 695 mmHg 92%
    04:00 +23°C° 0.1 mm 1 mps 695 mmHg 92%
    05:00 +23°C° 0.1 mm 1 mps 695 mmHg 92%
    06:00 +23°C° 0.1 mm 1 mps 696 mmHg 92%
    07:00 +24°C° 0 mm 1 mps 696 mmHg 87%
    08:00 +25°C° 0 mm 1 mps 697 mmHg 82%
    09:00 +26°C° 0 mm 1 mps 698 mmHg 77%
    10:00 +28°C° 0.4 mm 1 mps 698 mmHg 70%
    11:00 +29°C° 0.4 mm 2 mps 698 mmHg 63%
    12:00 +31°C° 0.4 mm 2 mps 698 mmHg 57%
    13:00 +30°C° 0.6 mm 2 mps 697 mmHg 60%
    14:00 +29°C° 0.6 mm 2 mps 697 mmHg 63%
    15:00 +29°C° 0.6 mm 2 mps 696 mmHg 66%
    16:00 +28°C° 0.2 mm 1 mps 696 mmHg 70%
    17:00 +27°C° 0.2 mm 1 mps 696 mmHg 73%
    18:00 +24°C° 0.2 mm 0 mps 696 mmHg 77%
    19:00 +24°C° 0.1 mm 0 mps 696 mmHg 79%
    20:00 +23°C° 0.1 mm 0 mps 697 mmHg 81%
    21:00 +22°C° 0.1 mm 0 mps 697 mmHg 83%
    22:00 +24°C° 1 mm 1 mps 697 mmHg 84%
    23:00 +24°C° 1 mm 1 mps 697 mmHg 85%
    Show more